Lid_Strength_Index
-1 -1 -0 -0 -0 -0 -0 -0 -0 -0 -0 -0 -0 -0 -0 -0 -1 1 4 1 5 9 9 7 7 10 9 8 13 11 12 11 10 13 14 14 15 15 16 15 15 15 16 16 15 18 19 13 13 13 11 13 12 10
-1 -1 -0 -0 0 -0 -0 -0 -0 -0 -0 -0 -0 -0 -0 -0 -0 -0 5 1 2 6 9 5 6 6 5 5 7 9 10 12 8 11 11 12 14 15 14 18 13 17 13 15 13 14 13 11 12 11 12 12 12 11
-1 -1 -0 -0 0 -0 -0 -0 -0 -0 -0 -0 -0 -0 -0 -0 -0 1 4 3 4 6 7 8 8 6 4 4 4 9 9 7 9 7 10 10 13 12 16 15 16 14 12 14 13 12 13 12 13 12 12 12 13 12
-0 -0 -0 -0 -0 0 -0 -0 -0 -0 -0 -0 -0 -0 -0 -0 -0 0 3 2 4 8 13 12 5 6 5 3 4 4 5 5 6 8 11 11 13 10 12 13 13 13 12 15 15 14 13 13 12 12 12 12 12 12
-0 -0 -0 0 0 -0 -0 -0 -0 0 -0 0 1 0 0 -0 -0 2 2 2 3 7 13 14 7 6 5 4 4 4 5 6 7 10 13 13 11 11 11 12 13 12 12 13 14 12 12 12 12 11 12 12 12 12
-0 -0 -0 0 0 0 0 0 0 0 0 0 1 -0 0 -0 0 3 6 2 1 3 9 12 11 7 6 5 5 5 5 6 6 8 11 13 11 9 13 14 12 11 11 11 12 11 12 12 12 12 12 13 13 12
1 0 0 0 0 0 0 0 0 0 -0 0 0 -0 -0 -0 3 5 7 6 1 3 9 15 15 8 5 5 7 6 6 9 8 8 11 9 9 9 15 15 12 10 9 10 11 11 11 13 12 13 13 14 15 14
0 0 1 1 0 0 -0 -0 -0 -0 -0 0 0 -0 -0 -0 1 4 2 0 1 6 10 17 17 11 5 8 9 6 7 7 8 10 10 11 10 10 14 12 10 10 10 11 12 11 11 13 15 16 15 13 14 15
0 0 0 0 0 0 0 -0 -0 -0 -0 -0 -0 -0 2 4 7 5 0 2 5 9 14 18 16 16 6 8 8 7 7 10 12 10 14 10 17 13 11 11 12 12 12 11 14 15 17 15 15 15 15 15 16 17
0 0 0 0 0 0 0 0 -0 -0 -0 -0 4 8 10 5 0 1 4 6 7 13 17 19 18 12 9 12 11 13 12 14 15 15 11 11 16 12 15 16 16 16 16 15 14 16 18 17 15 15 14 15 15 16
0 0 0 0 0 0 0 0 -0 0 1 6 13 14 5 2 6 9 11 10 12 13 17 20 16 12 10 13 16 12 14 16 17 17 14 14 18 14 18 18 18 19 19 18 18 15 14 13 14 16 16 15 16 16
1 0 0 0 0 0 0 0 -0 5 10 7 6 5 6 9 12 13 15 15 14 18 18 17 14 12 11 10 13 13 16 16 17 16 15 22 18 22 22 21 21 21 21 20 19 15 15 14 14 15 16 16 17 19
1 0 0 0 1 0 -0 0 -0 0 4 9 8 11 10 13 17 21 17 22 21 20 18 16 15 13 13 12 15 15 16 17 18 20 21 22 23 23 23 22 23 22 22 19 18 17 18 19 18 18 19 18 18 18
1 1 1 1 1 2 3 2 3 6 9 12 14 16 17 17 25 26 25 24 21 19 17 14 16 15 18 18 19 17 21 20 21 23 21 26 27 26 24 23 22 23 21 20 20 21 21 21 20 18 18 18 18 19
0 0 1 1 1 2 4 6 8 14 15 18 16 17 23 24 27 29 29 25 21 19 17 16 16 15 21 19 21 20 20 18 21 24 29 29 28 28 27 26 25 23 22 21 21 22 22 22 22 23 21 20 20 21
1 2 3 2 3 3 5 9 16 19 24 24 26 24 25 22 23 25 26 25 21 21 17 14 14 19 23 20 21 25 21 20 26 31 31 30 28 28 28 28 26 24 22 23 23 22 22 22 23 24 23 23 23 22
4 10 2 2 3 6 7 17 20 25 26 27 28 31 30 28 28 28 28 25 21 22 18 19 16 21 24 28 30 34 30 33 34 32 31 31 31 30 28 28 27 25 23 24 24 23 23 22 21 22 25 26 26 26
9 7 3 3 7 10 19 22 23 24 27 30 27 28 30 30 29 29 28 25 24 23 22 24 22 26 31 29 33 35 34 32 32 32 32 32 31 29 29 29 28 27 26 25 24 24 23 24 25 26 26 26 26 26
6 6 5 4 9 17 19 20 22 27 28 28 26 26 26 29 26 27 28 26 25 26 26 27 30 33 39 38 37 36 36 34 32 31 31 31 31 30 29 28 29 29 29 28 28 29 29 28 27 26 26 25 26 27
7 7 7 7 9 18 21 21 23 24 28 25 26 28 24 27 28 29 29 29 28 30 35 37 40 38 39 37 34 34 33 32 31 31 31 31 30 29 30 29 29 28 28 28 28 27 28 30 30 29 28 27 27 30
14 13 11 13 17 20 25 27 26 27 27 26 24 24 25 24 28 30 31 29 33 36 36 37 37 36 36 37 34 34 33 32 32 32 31 31 30 30 29 29 29 29 29 30 31 32 32 33 33 31 31 32 32 33
22 14 18 17 19 21 25 26 28 23 24 26 23 25 27 28 30 33 31 35 37 36 35 35 35 35 36 37 36 35 35 32 32 31 31 30 31 30 31 31 30 32 33 32 31 33 35 35 33 32 32 34 33 33
21 22 25 24 20 23 26 24 24 25 23 25 24 27 30 31 32 30 37 36 36 34 34 34 34 33 34 34 34 34 35 33 33 33 32 33 33 32 32 32 31 31 32 35 34 34 35 35 35 35 35 36 36 36
25 35 34 35 32 32 28 29 27 26 28 29 28 31 33 34 31 36 40 37 35 33 34 34 34 34 34 34 35 35 36 34 33 33 34 31 33 34 33 34 34 34 34 35 35 36 37 39 37 37 37 37 38 38
28 38 36 38 36 33 32 33 33 30 32 32 30 33 35 33 36 39 41 38 36 36 35 34 35 36 36 36 35 35 34 34 34 34 35 33 33 33 33 34 35 35 37 35 37 38 40 40 39 38 38 38 37 40
41 42 40 42 38 37 37 35 39 39 37 35 37 35 33 32 37 42 40 38 37 36 36 36 37 36 36 36 36 35 36 35 34 33 35 34 34 32 32 32 33 33 35 38 37 38 38 38 38 38 39 39 36 41
40 42 41 39 39 38 38 37 38 39 40 41 40 38 34 36 40 38 34 33 34 34 34 34 35 35 37 38 38 37 36 36 35 35 35 34 35 35 34 33 33 33 34 36 36 37 38 38 37 36 35 36 40 42
41 42 41 40 41 42 42 41 39 41 41 38 38 43 42 41 41 36 34 32 33 33 33 33 34 36 37 37 37 36 36 36 36 36 35 34 36 36 36 35 34 29 35 35 35 36 38 38 39 41 42 41 40 41
40 41 44 41 43 41 40 41 41 39 37 39 41 41 41 36 35 34 33 33 33 33 34 34 33 33 34 34 35 36 36 35 34 34 34 35 34 34 36 36 36 37 40 42 34 31 35 37 37 37 37 38 38 40
36 42 42 43 41 42 40 39 37 36 36 35 35 35 35 35 34 34 33 33 33 34 34 34 34 34 35 35 35 34 35 35 34 33 33 35 35 36 35 35 39 42 43 44 40 40 33 38 36 40 40 41 41 41
36 40 40 39 37 37 38 37 37 35 34 34 35 36 36 35 33 33 33 34 33 33 33 33 33 34 34 35 36 35 34 33 34 35 36 35 35 35 35 37 39 42 44 43 43 43 42 42 42 42 42 41 40 38
38 38 36 36 35 33 34 35 36 37 37 37 37 37 36 36 36 33 32 32 33 33 33 33 34 34 34 34 35 35 32 36 36 35 36 36 37 37 37 38 39 41 40 39 40 41 41 40 40 40 39 37 36 36
38 36 35 34 34 34 34 35 34 36 36 37 37 38 37 36 36 33 31 32 32 33 34 34 35 37 39 39 38 39 37 41 38 29 30 28 28 28 31 33 34 34 34 35 35 36 37 38 38 37 36 35 35 34